Change the Weather History Date:

Wednesday, March 27, 2013

  Actual Average (KLVN) Record (KLVN)
Temperature  
Mean Temperature 28 °F -  
Max Temperature 39 °F 47 °F 71 °F (1991)
Min Temperature 17 °F 26 °F 5 °F (1998)
Degree Days  
Heating Degree Days 37    
Moisture  
Dew Point 19 °F    
Average Humidity 72    
Maximum Humidity 89    
Minimum Humidity 41    
Precipitation  
Precipitation 0.00 in - - ()
Sea Level Pressure  
Sea Level Pressure 30.31 in    
Wind  
Wind Speed 2 mph (SSW)    
Max Wind Speed 6 mph    
Max Gust Speed -    
Visibility 10 miles    
Events      
Averages and records for this station are not official NWS values.
T = Trace of Precipitation, MM = Missing Value Source: NWS Daily Summary

Daily Weather History Graph

Daily Weather History Graph

Search for Another Location

Airport or City:

Trip Planner

Search our weather history database for the weather conditions in past years. The results will help you decide how hot, cold, wet, or windy it might be!

Date:

Astronomy

Mar. 27, 2013 Rise Set
Actual Time 7:01 AM CDT 7:33 PM CDT
Civil Twilight 6:32 AM CDT 8:02 PM CDT
Nautical Twilight 5:58 AM CDT 8:37 PM CDT
Astronomical Twilight 5:22 AM CDT 9:13 PM CDT
Moon 8:21 PM CDT (3/27) 6:51 AM CDT (3/27)
Length of Visible Light 13h 30m
Length of Day
12h 31m
Full, 100% of the Moon is Illuminated
Mar 27
Full
Apr 2
Last Quarter
Apr 10
New
Apr 18
First Quarter
Apr 25
Full

Hourly Weather History & Observations

Time (CDT) Temp. Windchill Dew Point Humidity Pressure Visibility Wind Dir Wind Speed Gust Speed Precip Events Conditions
12:13 AM 23.5 °F 19.1 °F 19.4 °F 84% 30.29 in 10.0 mi South 3.5 mph - N/A   Clear
12:33 AM 23.9 °F 19.5 °F 19.4 °F 83% 30.29 in 10.0 mi SSW 3.5 mph - N/A   Clear
12:53 AM 23.4 °F - 19.4 °F 85% 30.29 in 10.0 mi Calm Calm - N/A   Clear
1:13 AM 23.2 °F 18.7 °F 18.9 °F 84% 30.30 in 10.0 mi SSW 3.5 mph - N/A   Clear
1:33 AM 22.3 °F 17.6 °F 18.7 °F 86% 30.30 in 10.0 mi SSW 3.5 mph - N/A   Clear
1:53 AM 22.6 °F 18.0 °F 18.9 °F 85% 30.30 in 10.0 mi SSW 3.5 mph - N/A   Clear
2:13 AM 21.7 °F 17.0 °F 17.6 °F 84% 30.30 in 10.0 mi SSW 3.5 mph - N/A   Clear
2:33 AM 21.2 °F - 18.1 °F 88% 30.30 in 10.0 mi Calm Calm - N/A   Clear
2:53 AM 20.5 °F 15.6 °F 17.8 °F 89% 30.30 in 10.0 mi SW 3.5 mph - N/A   Clear
3:12 AM 20.5 °F 15.6 °F 17.8 °F 89% 30.29 in 10.0 mi SSW 3.5 mph - N/A   Clear
3:33 AM 19.9 °F - 16.5 °F 87% 30.29 in 10.0 mi Calm Calm - N/A   Clear
3:53 AM 19.9 °F 13.4 °F 16.9 °F 88% 30.29 in 10.0 mi SSW 4.6 mph - N/A   Clear
4:13 AM 19.2 °F - 16.2 °F 88% 30.29 in 10.0 mi Calm Calm - N/A   Clear
4:33 AM 19.0 °F 12.3 °F 16.3 °F 89% 30.29 in 10.0 mi SSW 4.6 mph - N/A   Clear
4:53 AM 18.5 °F 10.4 °F 15.8 °F 89% 30.29 in 10.0 mi SSW 5.8 mph - N/A   Clear
5:13 AM 18.5 °F 13.3 °F 15.6 °F 89% 30.30 in 10.0 mi SSW 3.5 mph - N/A   Clear
5:33 AM 18.3 °F 11.5 °F 15.4 °F 89% 30.30 in 10.0 mi SSW 4.6 mph - N/A   Clear
5:53 AM 18.1 °F 11.3 °F 15.3 °F 88% 30.30 in 10.0 mi SSW 4.6 mph - N/A   Clear
6:13 AM 18.1 °F 11.3 °F 15.1 °F 88% 30.30 in 10.0 mi SSW 4.6 mph - N/A   Clear
6:33 AM 18.1 °F 10.0 °F 15.3 °F 88% 30.30 in 10.0 mi SSW 5.8 mph - N/A   Clear
6:53 AM 17.4 °F 12.1 °F 14.2 °F 87% 30.31 in 10.0 mi SSW 3.5 mph - N/A   Clear
7:13 AM 17.6 °F 12.3 °F 14.5 °F 88% 30.31 in 10.0 mi SSW 3.5 mph - N/A   Clear
7:32 AM 17.4 °F 12.1 °F 14.2 °F 87% 30.32 in 10.0 mi South 3.5 mph - N/A   Clear
7:53 AM 19.2 °F 14.1 °F 16.2 °F 88% 30.32 in 10.0 mi SSW 3.5 mph - N/A   Clear
8:13 AM 20.7 °F 15.8 °F 17.2 °F 87% 30.32 in 10.0 mi SSW 3.5 mph - N/A   Clear
8:32 AM 21.2 °F - 17.4 °F 85% 30.32 in 10.0 mi Calm Calm - N/A   Clear
8:53 AM 22.6 °F - 18.7 °F 85% 30.32 in 10.0 mi Calm Calm - N/A   Clear
9:13 AM 23.5 °F - 19.2 °F 84% 30.32 in 10.0 mi Calm Calm - N/A   Clear
9:32 AM 25.9 °F 21.7 °F 20.8 °F 81% 30.32 in 10.0 mi SSW 3.5 mph - N/A   Clear
9:53 AM 27.5 °F - 21.4 °F 78% 30.32 in 10.0 mi Calm Calm - N/A   Clear
10:13 AM 28.9 °F - 21.9 °F 75% 30.33 in 10.0 mi Calm Calm - N/A   Clear
10:32 AM 30.4 °F - 21.4 °F 69% 30.33 in 10.0 mi Calm Calm - N/A   Clear
10:53 AM 31.5 °F - 22.8 °F 70% 30.33 in 10.0 mi Calm Calm - N/A   Clear
11:12 AM 32.5 °F - 21.4 °F 64% 30.33 in 10.0 mi Calm Calm - N/A   Clear
11:33 AM 33.6 °F - 19.8 °F 57% 30.33 in 10.0 mi Calm Calm - N/A   Clear
11:52 AM 34.7 °F - 20.3 °F 56% 30.33 in 10.0 mi Calm Calm - N/A   Clear
12:13 PM 35.6 °F 32.8 °F 19.0 °F 51% 30.33 in 10.0 mi SW 3.5 mph - N/A   Clear
12:33 PM 36.0 °F - 17.4 °F 47% 30.33 in 10.0 mi Calm Calm - N/A   Clear
12:52 PM 36.5 °F 33.9 °F 17.8 °F 47% 30.33 in 10.0 mi SW 3.5 mph - N/A   Clear
1:13 PM 37.0 °F - 17.2 °F 45% 30.33 in 10.0 mi Calm Calm - N/A   Clear
1:33 PM 36.9 °F 34.3 °F 17.6 °F 46% 30.33 in 10.0 mi WNW 3.5 mph - N/A   Clear
1:52 PM 37.4 °F - 17.2 °F 44% 30.33 in 10.0 mi Calm Calm - N/A   Clear
2:13 PM 37.4 °F - 21.0 °F 52% 30.32 in 10.0 mi Calm Calm - N/A   Clear
2:33 PM 37.2 °F - 21.2 °F 52% 30.32 in 10.0 mi Calm Calm - N/A   Clear
2:53 PM 38.5 °F - 16.7 °F 41% 30.31 in 10.0 mi Calm Calm - N/A   Clear
3:13 PM 38.7 °F 36.3 °F 19.2 °F 46% 30.31 in 10.0 mi SW 3.5 mph - N/A   Clear
3:33 PM 38.8 °F 36.5 °F 18.7 °F 44% 30.31 in 10.0 mi SSW 3.5 mph - N/A   Clear
3:52 PM 38.7 °F 35.2 °F 22.3 °F 52% 30.31 in 10.0 mi South 4.6 mph - N/A   Clear
4:13 PM 39.2 °F 37.0 °F 19.9 °F 46% 30.30 in 10.0 mi SSW 3.5 mph - N/A   Clear
4:33 PM 38.5 °F 35.0 °F 20.3 °F 48% 30.30 in 10.0 mi SSW 4.6 mph - N/A   Clear
4:52 PM 38.3 °F - 22.3 °F 53% 30.30 in 10.0 mi Calm Calm - N/A   Clear
5:13 PM 38.1 °F 35.7 °F 21.6 °F 51% 30.29 in 10.0 mi South 3.5 mph - N/A   Clear
5:33 PM 38.1 °F 34.6 °F 20.1 °F 48% 30.29 in 10.0 mi South 4.6 mph - N/A   Clear
5:52 PM 37.8 °F 35.3 °F 20.7 °F 50% 30.29 in 10.0 mi South 3.5 mph - N/A   Clear
6:13 PM 36.9 °F 34.3 °F 21.2 °F 53% 30.29 in 10.0 mi SSW 3.5 mph - N/A   Clear
6:33 PM 35.2 °F 31.2 °F 24.1 °F 64% 30.29 in 10.0 mi SSW 4.6 mph - N/A   Clear
6:53 PM 35.1 °F - 23.4 °F 62% 30.29 in 10.0 mi Calm Calm - N/A   Clear
7:13 PM 34.7 °F 31.8 °F 22.5 °F 61% 30.29 in 10.0 mi South 3.5 mph - N/A   Clear
7:33 PM 33.8 °F - 21.6 °F 61% 30.29 in 10.0 mi Calm Calm - N/A   Clear
7:53 PM 32.0 °F - 23.4 °F 70% 30.29 in 10.0 mi Calm Calm - N/A   Clear
8:13 PM 31.8 °F - 23.7 °F 72% 30.29 in 10.0 mi Calm Calm - N/A   Clear
8:33 PM 31.3 °F - 21.4 °F 67% 30.30 in 10.0 mi Calm Calm - N/A   Clear
8:53 PM 30.9 °F - 21.9 °F 69% 30.30 in 10.0 mi Calm Calm - N/A   Clear
9:12 PM 29.7 °F - 22.8 °F 76% 30.31 in 10.0 mi Calm Calm - N/A   Clear
9:33 PM 28.6 °F 24.8 °F 23.2 °F 80% 30.31 in 10.0 mi SW 3.5 mph - N/A   Clear
9:52 PM 28.4 °F 24.6 °F 23.2 °F 81% 30.32 in 10.0 mi SW 3.5 mph - N/A   Clear
10:13 PM 28.2 °F 24.4 °F 23.0 °F 81% 30.32 in 10.0 mi SSW 3.5 mph - N/A   Clear
10:33 PM 28.0 °F 24.2 °F 23.7 °F 84% 30.32 in 10.0 mi SW 3.5 mph - N/A   Clear
10:52 PM 27.3 °F 23.4 °F 23.0 °F 84% 30.32 in 10.0 mi SSW 3.5 mph - N/A   Clear
11:13 PM 27.0 °F - 21.7 °F 81% 30.32 in 10.0 mi Calm Calm - N/A   Clear
11:33 PM 25.9 °F - 21.7 °F 84% 30.32 in 10.0 mi Calm Calm - N/A   Clear
11:52 PM 25.7 °F - 21.2 °F 83% 30.33 in 10.0 mi Calm Calm - N/A   Clear